McCall, ID

10:05 PM MST on February 19, 2017 (GMT -0700)
McCall

Weather History for KMYL - November, 2011

Change the Weather History Date:

Monday, November 28, 2011

  Actual Average Record
Temperature  
Mean Temperature 32 °F 23 °F  
Max Temperature 40 °F 31 °F 50 °F (1936)
Min Temperature 23 °F 15 °F -5 °F (1979)
Degree Days  
Heating Degree Days 33 42  
Month to date heating degree days 1054 1010  
Since 1 July heating degree days 2083 2553  
Cooling Degree Days 0 0  
Month to date cooling degree days 0 0  
Year to date cooling degree days 56 25  
Moisture  
Dew Point 31 °F    
Average Humidity 80    
Maximum Humidity 100    
Minimum Humidity 59    
Precipitation  
Precipitation 0.01 in 0.06 in 1.23 in (1995)
Month to date precipitation 1.49 2.56  
Year to date precipitation 22.76 17.88  
Sea Level Pressure  
Sea Level Pressure 30.36 in    
Wind  
Wind Speed 1 mph (SE)    
Max Wind Speed 13 mph    
Max Gust Speed 17 mph    
Visibility 8 miles    
Events Rain    
T = Trace of Precipitation, MM = Missing Value Source: NWS Daily Summary

Daily Weather History Graph

Daily Weather History Graph

Search for Another Location

Airport or City:

Trip Planner

Search our weather history database for the weather conditions in past years. The results will help you decide how hot, cold, wet, or windy it might be!

Date:

Astronomy

Nov. 28, 2011 Rise Set
Actual Time 7:58 AM MST 5:06 PM MST
Civil Twilight 7:25 AM MST 5:38 PM MST
Nautical Twilight 6:49 AM MST 6:15 PM MST
Astronomical Twilight 6:13 AM MST 6:50 PM MST
Moon 11:09 AM MST (11/28) 9:00 PM MST (11/28)
Length of Visible Light 10h 13m
Length of Day
9h 07m
Waxing Crescent, 16% of the Moon is Illuminated
Nov 28
Waxing Crescent
Dec 2
First Quarter
Dec 10
Full
Dec 17
Last Quarter
Dec 24
New

Hourly Weather History & Observations

Time (MST) Temp. Windchill Dew Point Humidity Pressure Visibility Wind Dir Wind Speed Gust Speed Precip Events Conditions
12:51 AM 34.0 °F 29.8 °F 25.0 °F 70% 30.31 in 10.0 mi East 4.6 mph - N/A   Overcast
1:51 AM 39.9 °F 34.5 °F 27.0 °F 60% 30.29 in 10.0 mi SSE 8.1 mph - N/A   Overcast
2:51 AM 37.0 °F 33.3 °F 30.9 °F 79% 30.33 in 10.0 mi South 4.6 mph - 0.00 in Rain Light Rain
3:06 AM 37.4 °F - 32.0 °F 81% 30.30 in 10.0 mi Calm Calm - 0.00 in   Overcast
3:51 AM 36.0 °F 33.3 °F 32.0 °F 86% 30.35 in 10.0 mi ENE 3.5 mph - 0.00 in Rain Light Rain
4:38 AM 35.6 °F 30.7 °F 33.8 °F 93% 30.31 in 10.0 mi SE 5.8 mph - 0.00 in   Overcast
4:48 AM 35.6 °F 30.7 °F 33.8 °F 93% 30.31 in 10.0 mi SSE 5.8 mph - 0.00 in   Overcast
4:51 AM 36.0 °F 30.3 °F 33.1 °F 89% 30.36 in 10.0 mi SSE 6.9 mph - 0.00 in   Overcast
5:14 AM 35.6 °F 32.8 °F 33.8 °F 93% 30.31 in 10.0 mi SSE 3.5 mph - N/A   Overcast
5:22 AM 35.6 °F 31.7 °F 33.8 °F 93% 30.31 in 10.0 mi South 4.6 mph - N/A   Overcast
5:49 AM 33.8 °F - 33.8 °F 100% 30.31 in 5.0 mi Calm Calm - 0.01 in Rain Light Rain
5:51 AM 34.0 °F - 33.1 °F 96% 30.38 in 5.0 mi Calm Calm - 0.01 in Rain Light Rain
6:06 AM 33.8 °F - 33.8 °F 100% 30.31 in 10.0 mi Calm Calm - 0.00 in   Overcast
6:51 AM 34.0 °F - 33.1 °F 96% 30.38 in 10.0 mi Calm Calm - 0.00 in   Overcast
7:33 AM 33.8 °F 30.8 °F 33.8 °F 100% 30.32 in 10.0 mi SSW 3.5 mph - N/A   Overcast
7:49 AM 33.8 °F - 33.8 °F 100% 30.33 in 10.0 mi Calm Calm - N/A   Overcast
7:51 AM 34.0 °F - 33.1 °F 96% 30.39 in 10.0 mi Calm Calm - N/A   Overcast
8:16 AM 33.8 °F - 33.8 °F 100% 30.33 in 10.0 mi Calm Calm - N/A   Overcast
9:18 AM 33.8 °F - 33.8 °F 100% 30.35 in 7.0 mi Calm Calm - N/A   Overcast
9:51 AM 35.1 °F - 34.0 °F 96% 30.41 in 7.0 mi Calm Calm - N/A   Overcast
10:51 AM 37.0 °F - 34.0 °F 89% 30.42 in 10.0 mi Calm Calm - N/A   Overcast
11:30 AM 37.4 °F - 33.8 °F 87% 30.35 in 10.0 mi Calm Calm - N/A   Overcast
11:47 AM 37.4 °F - 33.8 °F 87% 30.34 in 10.0 mi Calm Calm - N/A   Overcast
11:51 AM 37.0 °F - 34.0 °F 89% 30.39 in 10.0 mi Calm Calm - N/A   Overcast
12:04 PM 37.4 °F 34.9 °F 33.8 °F 87% 30.33 in 10.0 mi SE 3.5 mph - N/A   Overcast
12:51 PM 37.9 °F - 34.0 °F 86% 30.38 in 10.0 mi Calm Calm - N/A   Overcast
1:45 PM 39.2 °F 35.9 °F 33.8 °F 81% 30.33 in 10.0 mi SSE 4.6 mph - N/A   Overcast
1:51 PM 39.9 °F 37.8 °F 33.1 °F 77% 30.36 in 10.0 mi SSE 3.5 mph - N/A   Overcast
2:00 PM 37.4 °F 33.8 °F 33.8 °F 87% 30.34 in 10.0 mi South 4.6 mph - 0.00 in Rain Light Rain
2:27 PM 39.2 °F - 33.8 °F 81% 30.33 in 10.0 mi Calm Calm - 0.00 in Rain Light Rain
2:51 PM 39.0 °F - 33.1 °F 79% 30.37 in 10.0 mi Calm Calm - 0.00 in   Overcast
3:51 PM 37.9 °F - 33.1 °F 83% 30.38 in 10.0 mi Calm Calm - N/A   Overcast
4:51 PM 37.9 °F - 34.0 °F 86% 30.38 in 10.0 mi Calm Calm - N/A   Mostly Cloudy
5:51 PM 35.1 °F - 33.1 °F 92% 30.41 in 10.0 mi Calm Calm - N/A   Overcast
6:51 PM 34.0 °F 31.0 °F 32.0 °F 92% 30.41 in 10.0 mi NNW 3.5 mph - N/A   Overcast
7:51 PM 30.9 °F - 30.0 °F 96% 30.42 in 9.0 mi Calm Calm - N/A   Clear
8:51 PM 28.9 °F - 28.0 °F 96% 30.43 in 10.0 mi Calm Calm - N/A   Clear
9:48 PM 26.6 °F - 26.6 °F 100% 30.36 in 1.8 mi Calm Calm - N/A   Partly Cloudy
9:51 PM 27.0 °F - 26.1 °F 96% 30.45 in 0.8 mi Calm Calm - N/A   Mist
10:06 PM 26.6 °F - 24.8 °F 93% 30.37 in 1.5 mi Calm Calm - N/A   Partly Cloudy
10:09 PM 24.8 °F - 24.8 °F 100% 30.37 in 4.0 mi Calm Calm - N/A   Partly Cloudy
10:51 PM 25.0 °F - 24.1 °F 96% 30.45 in 5.0 mi Calm Calm - N/A   Partly Cloudy
10:58 PM 24.8 °F - 24.8 °F 100% 30.36 in 1.5 mi Calm Calm - N/A   Scattered Clouds
11:02 PM 24.8 °F - 24.8 °F 100% 30.37 in 0.8 mi Calm Calm - N/A   Mist
11:31 PM 24.8 °F 19.1 °F 24.8 °F 100% 30.36 in 1.2 mi East 4.6 mph - N/A   Mostly Cloudy
11:35 PM 24.8 °F - 24.8 °F 100% 30.36 in 3.0 mi Calm Calm - N/A   Mostly Cloudy
11:44 PM 24.8 °F 20.5 °F 23.0 °F 93% 30.36 in 8.0 mi NNE 3.5 mph - N/A   Scattered Clouds
11:51 PM 25.0 °F - 23.0 °F 92% 30.44 in 10.0 mi Calm Calm - N/A   Partly Cloudy